EST,Max TemperatureF,Mean TemperatureF,Min TemperatureF,Max Dew PointF,MeanDew PointF,Min DewpointF,Max Humidity, Mean Humidity, Min Humidity, Max Sea Level PressureIn, Mean Sea Level PressureIn, Min Sea Level PressureIn, Max VisibilityMiles, Mean VisibilityMiles, Min VisibilityMiles, Max Wind SpeedMPH, Mean Wind SpeedMPH, Max Gust SpeedMPH,PrecipitationIn, CloudCover, Events, WindDirDegrees
2013-12-1,38,28,17,25,21,14,84,72,59,30.34,30.17,30.02,8,7,4,5,0,7,0.00,5,,310
2013-12-2,44,40,35,30,28,25,75,64,53,30.01,29.93,29.88,8,6,5,8,1,,0.00,8,,22
2013-12-3,55,44,32,34,31,28,82,64,46,29.99,29.94,29.89,7,5,3,6,1,39,0.00,3,,9
2013-12-4,56,43,30,43,35,27,93,74,54,30.09,30.03,29.99,7,3,0,7,3,9,0.00,1,Fog,43
2013-12-5,69,53,37,54,46,36,100,78,55,30.05,29.98,29.91,10,3,0,13,2,23,0.07,4,Fog-Rain,187
2013-12-6,59,48,36,56,40,33,92,87,82,30.20,30.07,29.88,10,5,2,17,9,24,2.23,8,Rain,347
2013-12-7,39,34,28,33,26,18,92,72,52,30.56,30.38,30.20,10,10,8,20,9,24,T,5,,333
2013-12-8,29,27,24,25,21,15,88,76,63,30.59,30.46,30.32,10,4,0,10,3,13,0.06,7,Fog-Rain-Snow,49
2013-12-9,34,31,28,31,28,25,100,93,85,30.30,30.13,30.03,10,4,0,15,2,19,0.18,7,Fog-Rain,69
2013-12-10,38,32,26,31,26,11,92,70,47,30.22,30.06,29.99,10,5,0,22,8,27,0.19,5,Fog-Snow,296
2013-12-11,36,27,18,14,12,10,55,47,38,30.40,30.33,30.23,10,10,10,13,7,,0.00,0,,221
2013-12-12,36,28,19,7,3,0,52,41,29,30.43,30.34,30.24,10,8,1,20,9,26,0.00,0,,257
2013-12-13,41,31,20,19,11,3,75,54,33,30.31,30.26,30.22,10,10,10,23,7,29,0.00,0,,224
2013-12-14,34,31,28,31,28,19,92,81,69,30.33,30.12,29.75,10,3,0,9,4,11,0.40,8,Fog-Rain-Snow,44
2013-12-15,41,36,30,31,27,19,92,74,55,29.95,29.76,29.65,10,6,0,26,11,34,0.01,7,Fog,278
2013-12-16,35,32,28,23,20,17,72,64,56,30.19,30.11,29.96,10,10,8,20,6,24,T,8,,354
2013-12-17,37,33,28,29,26,23,85,78,70,30.13,30.01,29.95,8,5,2,10,3,12,T,6,Snow,11
2013-12-18,37,30,23,24,19,16,92,70,47,30.22,30.15,30.02,10,9,2,21,7,28,0.00,5,,271
2013-12-19,55,37,19,29,22,15,84,57,30,30.17,30.12,30.06,10,10,9,12,3,21,0.00,0,,212
2013-12-20,57,45,33,34,28,24,82,57,32,30.08,30.03,29.97,10,10,10,12,6,16,0.00,2,,196
2013-12-21,67,59,50,55,43,35,72,58,43,29.98,29.92,29.84,10,10,10,12,7,23,T,1,,174
2013-12-22,68,64,59,59,56,53,90,81,72,29.97,29.88,29.76,10,10,6,18,9,25,0.15,4,Rain,192
2013-12-23,61,48,35,56,45,20,93,72,50,30.27,30.05,29.94,10,8,0,24,8,32,0.44,7,Fog-Rain,302
2013-12-24,38,30,21,21,14,3,63,49,35,30.50,30.32,30.23,10,10,9,24,10,32,T,4,,306
2013-12-25,30,23,16,11,8,5,61,50,39,30.58,30.48,30.34,10,10,10,12,5,14,0.00,0,,182
2013-12-26,44,33,22,20,15,11,68,51,33,30.36,30.28,30.22,10,10,10,26,6,34,0.00,4,,242
2013-12-27,51,36,20,18,15,8,77,48,18,30.41,30.36,30.31,10,10,10,21,6,26,0.00,1,,224
2013-12-28,59,42,25,23,20,17,68,45,21,30.32,30.22,30.10,10,10,10,12,5,15,0.00,0,,192
2013-12-29,50,46,41,43,39,23,96,66,36,30.08,29.79,29.59,10,6,1,18,6,24,1.17,7,Rain,318
2013-12-30,46,35,24,36,26,18,81,68,54,30.18,30.05,29.84,10,10,10,24,10,30,0.00,5,,301
2013-12-31,41,32,23,24,18,13,81,60,38,30.32,30.18,30.11,10,9,2,31,8,40,0.00,4,,243